QPF
0.00 0.00 0.01 0.01 0.01 0.01 0.01 0.01 0.02 0.01 0.01 0.01 0.01 0.01 0.01 0.00 0.00 0.00 0.01 0.01 0.00 0.01 0.01 0.01 0.01 0.01 0.01 0.01 0.01 0.00 0.00 0.01 0.01 0.01 0.01 0.01 0.01 0.01 0.01 0.00 0.00 0.00 0.00
0.00 0.00 0.01 0.01 0.01 0.01 0.01 0.01 0.01 0.01 0.01 0.01 0.01 0.01 0.01 0.00 0.00 0.00 0.01 0.00 0.00 0.00 0.01 0.01 0.01 0.01 0.01 0.01 0.01 0.01 0.00 0.00 0.00 0.00 0.00 0.00 0.01 0.01 0.01 0.01 0.00 0.00 0.00
0.00 0.00 0.00 0.00 0.01 0.01 0.01 0.01 0.01 0.01 0.00 0.01 0.01 0.01 0.01 0.01 0.00 0.00 0.00 0.00 0.00 0.00 0.00 0.00 0.00 0.00 0.00 0.00 0.00 0.00 0.00 0.00 0.00 0.00 0.00 0.00 0.00 0.01 0.01 0.01 0.00 0.00 0.00
0.00 0.00 0.00 0.00 0.01 0.01 0.01 0.01 0.01 0.01 0.01 0.00 0.01 0.01 0.01 0.01 0.00 0.00 0.00 0.00 0.00 0.00 0.00 0.00 0.00 0.00 0.00 0.00 0.00 0.00 0.00 0.00 0.00 0.00 0.00 0.00 0.00 0.01 0.01 0.00 0.01 0.00 0.00
0.00 0.00 0.00 0.00 0.01 0.01 0.01 0.01 0.00 0.01 0.01 0.00 0.00 0.00 0.01 0.00 0.00 0.00 0.00 0.00 0.00 0.00 0.00 0.00 0.00 0.00 0.00 0.00 0.00 0.00 0.00 0.00 0.00 0.00 0.00 0.00 0.00 0.00 0.00 0.00 0.00 0.00 0.00
0.00 0.00 0.00 0.00 0.01 0.01 0.01 0.01 0.01 0.00 0.01 0.01 0.00 0.00 0.00 0.00 0.00 0.00 0.00 0.00 0.00 0.00 0.00 0.00 0.00 0.00 0.00 0.00 0.00 0.00 0.00 0.00 0.00 0.00 0.00 0.00 0.00 0.00 0.00 0.00 0.00 0.00 0.00
0.00 0.00 0.00 0.01 0.01 0.01 0.01 0.01 0.01 0.00 0.01 0.01 0.01 0.00 0.00 0.00 0.00 0.00 0.00 0.00 0.00 0.00 0.00 0.00 0.00 0.00 0.00 0.00 0.00 0.00 0.00 0.00 0.00 0.00 0.00 0.00 0.00 0.00 0.00 0.00 0.00 0.00 0.00
0.00 0.00 0.00 0.01 0.01 0.01 0.01 0.01 0.01 0.01 0.01 0.01 0.01 0.01 0.00 0.00 0.00 0.00 0.00 0.00 0.00 0.00 0.00 0.00 0.00 0.00 0.00 0.00 0.00 0.00 0.00 0.00 0.00 0.00 0.00 0.00 0.00 0.00 0.00 0.00 0.00 0.00 0.00
0.00 0.00 0.00 0.01 0.01 0.01 0.01 0.01 0.01 0.01 0.01 0.01 0.01 0.01 0.01 0.00 0.00 0.00 0.00 0.00 0.00 0.00 0.00 0.00 0.00 0.00 0.00 0.00 0.00 0.00 0.00 0.00 0.00 0.00 0.00 0.00 0.00 0.00 0.00 0.00 0.00 0.00 0.00
0.00 0.00 0.00 0.01 0.01 0.01 0.01 0.01 0.01 0.01 0.01 0.01 0.01 0.01 0.01 0.00 0.00 0.00 0.00 0.00 0.00 0.00 0.00 0.00 0.00 0.00 0.00 0.00 0.00 0.00 0.00 0.00 0.00 0.00 0.00 0.00 0.00 0.00 0.00 0.00 0.00 0.00 0.00
0.00 0.00 0.00 0.01 0.01 0.01 0.01 0.01 0.01 0.01 0.01 0.01 0.01 0.01 0.01 0.00 0.00 0.00 0.00 0.00 0.00 0.00 0.00 0.00 0.00 0.00 0.00 0.00 0.00 0.00 0.00 0.00 0.00 0.00 0.00 0.00 0.00 0.00 0.00 0.00 0.00 0.00 0.00
0.00 0.00 0.00 0.01 0.01 0.01 0.01 0.01 0.01 0.01 0.01 0.01 0.01 0.00 0.00 0.00 0.00 0.00 0.00 0.00 0.00 0.00 0.00 0.00 0.00 0.00 0.00 0.00 0.00 0.00 0.00 0.00 0.00 0.00 0.00 0.00 0.00 0.00 0.00 0.00 0.00 0.00 0.00
0.00 0.00 0.00 0.01 0.01 0.01 0.00 0.01 0.01 0.01 0.01 0.01 0.00 0.00 0.00 0.00 0.00 0.00 0.00 0.00 0.00 0.00 0.00 0.00 0.00 0.00 0.00 0.00 0.00 0.00 0.00 0.00 0.00 0.00 0.00 0.00 0.00 0.00 0.00 0.00 0.00 0.00 0.00
0.00 0.00 0.00 0.01 0.01 0.01 0.00 0.00 0.01 0.01 0.01 0.01 0.00 0.00 0.00 0.00 0.00 0.00 0.00 0.00 0.00 0.00 0.00 0.00 0.00 0.00 0.00 0.00 0.00 0.00 0.00 0.00 0.00 0.00 0.00 0.00 0.00 0.00 0.00 0.00 0.00 0.00 0.00
0.00 0.00 0.00 0.00 0.01 0.01 0.00 0.00 0.01 0.01 0.01 0.01 0.01 0.00 0.00 0.00 0.00 0.00 0.00 0.00 0.00 0.00 0.00 0.00 0.00 0.00 0.00 0.00 0.00 0.00 0.00 0.00 0.00 0.00 0.00 0.00 0.00 0.00 0.00 0.00 0.00 0.00 0.01
0.00 0.00 0.00 0.00 0.00 0.01 0.01 0.00 0.01 0.01 0.01 0.01 0.01 0.01 0.00 0.00 0.00 0.00 0.00 0.00 0.00 0.00 0.00 0.00 0.00 0.00 0.00 0.00 0.00 0.00 0.00 0.00 0.00 0.00 0.00 0.00 0.00 0.00 0.00 0.00 0.00 0.00 0.00
0.00 0.00 0.00 0.00 0.00 0.00 0.01 0.01 0.01 0.01 0.01 0.01 0.01 0.00 0.00 0.00 0.00 0.00 0.00 0.00 0.00 0.00 0.00 0.00 0.00 0.00 0.00 0.00 0.00 0.00 0.00 0.00 0.00 0.00 0.00 0.00 0.00 0.00 0.00 0.00 0.00 0.00 0.00
0.00 0.00 0.00 0.00 0.00 0.00 0.01 0.01 0.01 0.01 0.01 0.01 0.01 0.01 0.01 0.00 0.00 0.00 0.00 0.00 0.00 0.00 0.00 0.00 0.00 0.00 0.00 0.00 0.00 0.00 0.00 0.00 0.00 0.00 0.00 0.00 0.00 0.00 0.00 0.00 0.00 0.00 0.00
0.00 0.00 0.00 0.00 0.00 0.00 0.00 0.01 0.01 0.01 0.01 0.01 0.01 0.01 0.01 0.01 0.00 0.00 0.01 0.01 0.01 0.00 0.00 0.00 0.00 0.00 0.00 0.00 0.01 0.00 0.00 0.00 0.00 0.00 0.00 0.00 0.00 0.00 0.00 0.00 0.00 0.00 0.00
0.00 0.00 0.00 0.00 0.00 0.00 0.00 0.01 0.01 0.01 0.01 0.01 0.01 0.01 0.01 0.01 0.01 0.01 0.01 0.01 0.00 0.00 0.00 0.01 0.01 0.01 0.01 0.01 0.01 0.00 0.00 0.00 0.00 0.00 0.00 0.00 0.00 0.00 0.00 0.00 0.00 0.00 0.00
0.00 0.00 0.00 0.00 0.00 0.00 0.00 0.01 0.01 0.01 0.01 0.00 0.01 0.00 0.00 0.00 0.00 0.01 0.01 0.01 0.01 0.01 0.01 0.01 0.01 0.01 0.00 0.00 0.00 0.00 0.00 0.00 0.00 0.00 0.00 0.00 0.00 0.00 0.00 0.00 0.00 0.00 0.00
0.00 0.00 0.00 0.00 0.00 0.00 0.00 0.00 0.00 0.00 0.00 0.00 0.00 0.00 0.00 0.00 0.00 0.00 0.00 0.01 0.00 0.00 0.00 0.00 0.00 0.00 0.00 0.00 0.00 0.00 0.00 0.00 0.00 0.00 0.00 0.00 0.00 0.00 0.00 0.00 0.00 0.00 0.00
0.00 0.00 0.00 0.00 0.00 0.00 0.00 0.00 0.00 0.00 0.00 0.00 0.00 0.00 0.00 0.00 0.00 0.00 0.00 0.00 0.00 0.00 0.00 0.00 0.00 0.00 0.00 0.00 0.00 0.00 0.00 0.00 0.00 0.00 0.00 0.00 0.00 0.00 0.00 0.00 0.00 0.00 0.00
0.00 0.00 0.00 0.00 0.00 0.00 0.00 0.00 0.00 0.00 0.00 0.00 0.00 0.00 0.00 0.00 0.00 0.00 0.00 0.00 0.00 0.00 0.00 0.00 0.00 0.00 0.00 0.00 0.00 0.00 0.00 0.00 0.00 0.00 0.00 0.00 0.00 0.00 0.00 0.00 0.00 0.00 0.00
0.00 0.00 0.00 0.00 0.00 0.00 0.00 0.00 0.00 0.00 0.00 0.00 0.00 0.00 0.00 0.00 0.00 0.00 0.00 0.00 0.00 0.00 0.00 0.00 0.00 0.00 0.00 0.00 0.00 0.00 0.00 0.00 0.00 0.00 0.00 0.00 0.00 0.00 0.00 0.00 0.00 0.00 0.00
0.00 0.00 0.00 0.00 0.00 0.00 0.00 0.00 0.00 0.00 0.00 0.00 0.00 0.00 0.00 0.00 0.00 0.00 0.00 0.00 0.00 0.00 0.00 0.00 0.00 0.00 0.00 0.00 0.00 0.00 0.00 0.00 0.00 0.00 0.00 0.00 0.00 0.00 0.00 0.00 0.00 0.00 0.00
MSLP
1017.80 1017.63 1017.59 1017.70 1017.93 1018.24 1018.59 1018.93 1019.22 1019.45 1019.63 1019.76 1019.88 1020.01 1020.16 1020.32 1020.49 1020.63 1020.75 1020.82 1020.85 1020.85 1020.83 1020.80 1020.79 1020.81 1020.84 1020.88 1020.92 1020.95 1020.96 1020.94 1020.89 1020.82 1020.73 1020.63 1020.53 1020.44 1020.35 1020.28 1020.21 1020.15 1020.09
1017.44 1017.35 1017.38 1017.57 1017.87 1018.25 1018.66 1019.04 1019.37 1019.62 1019.82 1019.98 1020.13 1020.30 1020.50 1020.72 1020.95 1021.15 1021.32 1021.43 1021.48 1021.49 1021.46 1021.42 1021.39 1021.38 1021.38 1021.40 1021.42 1021.44 1021.44 1021.42 1021.38 1021.31 1021.23 1021.14 1021.04 1020.94 1020.84 1020.74 1020.66 1020.58 1020.52
1017.09 1017.08 1017.20 1017.46 1017.84 1018.29 1018.76 1019.19 1019.55 1019.84 1020.06 1020.25 1020.43 1020.63 1020.86 1021.12 1021.38 1021.62 1021.81 1021.95 1022.01 1022.02 1021.99 1021.95 1021.90 1021.87 1021.86 1021.86 1021.87 1021.89 1021.90 1021.89 1021.87 1021.83 1021.76 1021.68 1021.58 1021.46 1021.34 1021.22 1021.11 1021.02 1020.95
1016.81 1016.88 1017.08 1017.42 1017.86 1018.37 1018.89 1019.36 1019.76 1020.08 1020.32 1020.52 1020.72 1020.94 1021.19 1021.46 1021.74 1021.99 1022.19 1022.33 1022.40 1022.42 1022.39 1022.35 1022.31 1022.27 1022.26 1022.27 1022.29 1022.32 1022.35 1022.37 1022.38 1022.36 1022.31 1022.23 1022.13 1021.99 1021.85 1021.70 1021.57 1021.46 1021.39
1016.66 1016.81 1017.07 1017.46 1017.95 1018.50 1019.04 1019.54 1019.95 1020.28 1020.54 1020.76 1020.97 1021.20 1021.46 1021.73 1022.01 1022.26 1022.46 1022.59 1022.67 1022.69 1022.68 1022.66 1022.63 1022.62 1022.63 1022.65 1022.69 1022.74 1022.80 1022.84 1022.88 1022.88 1022.85 1022.78 1022.66 1022.51 1022.34 1022.16 1022.00 1021.88 1021.81
1016.68 1016.87 1017.18 1017.60 1018.10 1018.65 1019.19 1019.67 1020.08 1020.41 1020.67 1020.90 1021.13 1021.37 1021.64 1021.92 1022.19 1022.44 1022.63 1022.77 1022.85 1022.89 1022.90 1022.90 1022.91 1022.93 1022.97 1023.02 1023.09 1023.16 1023.23 1023.30 1023.35 1023.37 1023.35 1023.27 1023.14 1022.96 1022.76 1022.55 1022.38 1022.24 1022.17
1016.83 1017.05 1017.38 1017.79 1018.28 1018.80 1019.30 1019.75 1020.13 1020.44 1020.71 1020.95 1021.20 1021.46 1021.75 1022.04 1022.32 1022.57 1022.77 1022.91 1023.00 1023.06 1023.10 1023.14 1023.18 1023.24 1023.31 1023.39 1023.47 1023.56 1023.65 1023.72 1023.77 1023.79 1023.76 1023.67 1023.52 1023.32 1023.08 1022.85 1022.65 1022.51 1022.43
1017.07 1017.30 1017.62 1018.02 1018.47 1018.93 1019.37 1019.76 1020.10 1020.39 1020.65 1020.91 1021.19 1021.50 1021.82 1022.14 1022.45 1022.71 1022.91 1023.06 1023.17 1023.24 1023.31 1023.38 1023.46 1023.55 1023.65 1023.75 1023.84 1023.93 1024.00 1024.06 1024.10 1024.10 1024.05 1023.94 1023.76 1023.54 1023.28 1023.02 1022.80 1022.65 1022.57
1017.31 1017.55 1017.86 1018.22 1018.62 1019.02 1019.39 1019.72 1020.01 1020.27 1020.54 1020.83 1021.15 1021.51 1021.88 1022.25 1022.58 1022.86 1023.08 1023.23 1023.35 1023.44 1023.53 1023.62 1023.73 1023.84 1023.96 1024.06 1024.15 1024.22 1024.27 1024.30 1024.31 1024.27 1024.19 1024.06 1023.86 1023.61 1023.34 1023.06 1022.82 1022.65 1022.56
1017.48 1017.72 1018.03 1018.37 1018.73 1019.07 1019.38 1019.65 1019.90 1020.15 1020.42 1020.74 1021.11 1021.53 1021.96 1022.37 1022.73 1023.03 1023.25 1023.41 1023.53 1023.62 1023.72 1023.82 1023.94 1024.07 1024.19 1024.29 1024.36 1024.41 1024.43 1024.42 1024.38 1024.31 1024.20 1024.04 1023.83 1023.56 1023.27 1022.98 1022.72 1022.53 1022.43
1017.51 1017.78 1018.10 1018.44 1018.78 1019.09 1019.36 1019.59 1019.81 1020.05 1020.34 1020.69 1021.10 1021.56 1022.03 1022.48 1022.87 1023.18 1023.40 1023.55 1023.65 1023.74 1023.83 1023.93 1024.06 1024.19 1024.30 1024.40 1024.45 1024.47 1024.45 1024.40 1024.33 1024.23 1024.09 1023.91 1023.68 1023.41 1023.12 1022.81 1022.54 1022.33 1022.19
1017.40 1017.70 1018.05 1018.41 1018.76 1019.06 1019.32 1019.54 1019.75 1019.99 1020.29 1020.66 1021.10 1021.59 1022.09 1022.55 1022.95 1023.25 1023.46 1023.59 1023.67 1023.74 1023.82 1023.91 1024.04 1024.17 1024.28 1024.37 1024.41 1024.40 1024.36 1024.27 1024.17 1024.04 1023.88 1023.69 1023.47 1023.20 1022.91 1022.60 1022.32 1022.08 1021.91
1017.16 1017.49 1017.88 1018.28 1018.66 1018.99 1019.26 1019.49 1019.71 1019.96 1020.26 1020.64 1021.09 1021.59 1022.08 1022.54 1022.92 1023.21 1023.39 1023.49 1023.55 1023.60 1023.67 1023.76 1023.88 1024.01 1024.13 1024.21 1024.24 1024.22 1024.15 1024.05 1023.92 1023.77 1023.60 1023.42 1023.20 1022.95 1022.68 1022.38 1022.09 1021.83 1021.62
1016.82 1017.19 1017.62 1018.07 1018.49 1018.86 1019.16 1019.43 1019.67 1019.93 1020.24 1020.62 1021.05 1021.52 1022.00 1022.42 1022.77 1023.03 1023.19 1023.27 1023.31 1023.35 1023.40 1023.49 1023.61 1023.75 1023.87 1023.95 1023.98 1023.95 1023.87 1023.75 1023.61 1023.45 1023.29 1023.11 1022.92 1022.70 1022.44 1022.17 1021.88 1021.60 1021.36
1016.44 1016.83 1017.29 1017.77 1018.24 1018.66 1019.02 1019.33 1019.60 1019.88 1020.20 1020.56 1020.96 1021.39 1021.82 1022.20 1022.51 1022.74 1022.87 1022.94 1022.98 1023.01 1023.07 1023.16 1023.29 1023.43 1023.56 1023.64 1023.67 1023.64 1023.55 1023.42 1023.27 1023.11 1022.94 1022.78 1022.62 1022.43 1022.22 1021.98 1021.71 1021.43 1021.16
1016.10 1016.47 1016.93 1017.43 1017.93 1018.40 1018.82 1019.18 1019.50 1019.81 1020.12 1020.46 1020.83 1021.21 1021.58 1021.91 1022.18 1022.38 1022.51 1022.58 1022.62 1022.67 1022.74 1022.84 1022.98 1023.12 1023.25 1023.34 1023.36 1023.32 1023.23 1023.08 1022.92 1022.75 1022.59 1022.45 1022.31 1022.16 1021.99 1021.79 1021.56 1021.29 1021.02
1015.85 1016.17 1016.59 1017.08 1017.59 1018.10 1018.58 1019.00 1019.38 1019.72 1020.04 1020.36 1020.69 1021.01 1021.33 1021.62 1021.85 1022.04 1022.17 1022.25 1022.32 1022.39 1022.48 1022.60 1022.73 1022.88 1023.00 1023.07 1023.09 1023.04 1022.92 1022.77 1022.59 1022.41 1022.25 1022.11 1021.99 1021.88 1021.76 1021.61 1021.42 1021.19 1020.92
1015.70 1015.95 1016.31 1016.76 1017.28 1017.82 1018.34 1018.83 1019.26 1019.64 1019.98 1020.29 1020.58 1020.86 1021.13 1021.37 1021.59 1021.77 1021.91 1022.03 1022.13 1022.22 1022.33 1022.45 1022.59 1022.72 1022.82 1022.87 1022.87 1022.80 1022.67 1022.49 1022.30 1022.11 1021.93 1021.80 1021.69 1021.60 1021.52 1021.41 1021.27 1021.08 1020.84
1015.69 1015.85 1016.13 1016.54 1017.03 1017.59 1018.15 1018.70 1019.19 1019.62 1019.98 1020.29 1020.55 1020.80 1021.02 1021.24 1021.44 1021.62 1021.78 1021.92 1022.05 1022.17 1022.30 1022.42 1022.54 1022.64 1022.72 1022.75 1022.72 1022.63 1022.48 1022.29 1022.08 1021.86 1021.67 1021.52 1021.41 1021.33 1021.27 1021.19 1021.10 1020.95 1020.75
1015.79 1015.87 1016.08 1016.42 1016.89 1017.45 1018.06 1018.66 1019.21 1019.68 1020.07 1020.38 1020.63 1020.84 1021.03 1021.22 1021.41 1021.59 1021.77 1021.93 1022.09 1022.22 1022.35 1022.46 1022.55 1022.63 1022.68 1022.68 1022.64 1022.53 1022.38 1022.18 1021.95 1021.71 1021.50 1021.32 1021.19 1021.09 1021.02 1020.96 1020.89 1020.78 1020.62
1016.00 1016.01 1016.15 1016.44 1016.88 1017.44 1018.07 1018.71 1019.31 1019.83 1020.24 1020.56 1020.80 1020.98 1021.14 1021.30 1021.47 1021.65 1021.84 1022.02 1022.19 1022.33 1022.44 1022.54 1022.61 1022.66 1022.68 1022.67 1022.61 1022.51 1022.36 1022.16 1021.93 1021.68 1021.44 1021.22 1021.04 1020.90 1020.80 1020.73 1020.65 1020.55 1020.41
1016.26 1016.24 1016.33 1016.58 1016.99 1017.54 1018.18 1018.85 1019.49 1020.04 1020.47 1020.79 1021.02 1021.18 1021.31 1021.44 1021.59 1021.77 1021.95 1022.14 1022.30 1022.44 1022.54 1022.61 1022.66 1022.68 1022.69 1022.68 1022.63 1022.55 1022.43 1022.25 1022.03 1021.77 1021.49 1021.22 1020.98 1020.78 1020.62 1020.49 1020.38 1020.27 1020.13
1016.55 1016.53 1016.59 1016.81 1017.19 1017.73 1018.37 1019.05 1019.70 1020.26 1020.70 1021.02 1021.23 1021.37 1021.48 1021.59 1021.72 1021.88 1022.06 1022.23 1022.39 1022.51 1022.60 1022.65 1022.68 1022.69 1022.70 1022.70 1022.69 1022.65 1022.56 1022.42 1022.22 1021.96 1021.65 1021.33 1021.01 1020.72 1020.47 1020.26 1020.09 1019.94 1019.78
1016.83 1016.83 1016.89 1017.08 1017.43 1017.94 1018.56 1019.23 1019.88 1020.44 1020.89 1021.20 1021.40 1021.52 1021.61 1021.70 1021.82 1021.96 1022.13 1022.29 1022.44 1022.55 1022.62 1022.66 1022.67 1022.68 1022.70 1022.73 1022.76 1022.77 1022.73 1022.64 1022.47 1022.20 1021.87 1021.49 1021.10 1020.71 1020.35 1020.05 1019.79 1019.57 1019.37
1017.05 1017.09 1017.16 1017.34 1017.66 1018.14 1018.73 1019.37 1020.00 1020.55 1020.99 1021.29 1021.49 1021.60 1021.69 1021.77 1021.87 1022.01 1022.16 1022.32 1022.46 1022.55 1022.61 1022.64 1022.64 1022.66 1022.69 1022.75 1022.81 1022.87 1022.89 1022.84 1022.70 1022.45 1022.10 1021.67 1021.20 1020.71 1020.26 1019.85 1019.50 1019.20 1018.94
1017.19 1017.28 1017.37 1017.54 1017.83 1018.27 1018.82 1019.43 1020.03 1020.56 1020.99 1021.30 1021.50 1021.62 1021.71 1021.79 1021.90 1022.03 1022.19 1022.34 1022.46 1022.55 1022.59 1022.60 1022.60 1022.62 1022.66 1022.73 1022.83 1022.93 1022.99 1022.98 1022.86 1022.62 1022.26 1021.79 1021.26 1020.71 1020.16 1019.66 1019.22 1018.85 1018.53
Thickness
5722 5723 5722 5719 5716 5714 5712 5710 5708 5706 5704 5703 5701 5700 5698 5697 5697 5696 5695 5695 5694 5694 5694 5694 5693 5693 5693 5693 5693 5692 5692 5692 5692 5693 5693 5695 5695 5696 5696 5696 5697 5698 5699
5729 5724 5721 5717 5714 5711 5709 5707 5705 5702 5700 5699 5697 5695 5694 5693 5692 5691 5690 5689 5689 5688 5688 5687 5687 5686 5686 5686 5686 5685 5685 5685 5685 5685 5685 5686 5688 5689 5689 5689 5690 5691 5692
5728 5723 5720 5716 5712 5709 5707 5704 5701 5699 5697 5694 5692 5691 5689 5688 5686 5685 5684 5683 5682 5682 5681 5680 5680 5679 5679 5679 5679 5678 5678 5678 5678 5678 5678 5679 5680 5682 5682 5682 5683 5684 5684
5727 5722 5718 5714 5710 5707 5704 5701 5698 5695 5693 5691 5688 5686 5684 5683 5681 5679 5678 5677 5676 5675 5675 5674 5673 5673 5672 5672 5672 5671 5671 5670 5670 5670 5671 5672 5673 5674 5675 5675 5676 5676 5677
5724 5720 5716 5712 5708 5705 5701 5698 5695 5692 5689 5687 5684 5682 5680 5678 5676 5674 5672 5671 5670 5669 5668 5668 5667 5667 5666 5666 5665 5665 5664 5663 5663 5663 5664 5665 5666 5667 5667 5668 5668 5669 5669
5722 5718 5714 5710 5706 5702 5699 5695 5692 5689 5686 5683 5680 5678 5675 5673 5671 5669 5667 5666 5664 5663 5662 5661 5661 5660 5660 5659 5659 5658 5657 5656 5656 5656 5657 5658 5659 5660 5661 5661 5661 5662 5662
5719 5715 5712 5708 5704 5700 5696 5692 5689 5685 5682 5679 5676 5674 5671 5668 5666 5664 5662 5660 5659 5658 5657 5656 5655 5654 5653 5653 5652 5652 5651 5650 5650 5650 5650 5651 5652 5654 5654 5655 5655 5655 5656
5717 5713 5709 5705 5701 5697 5693 5689 5686 5682 5679 5676 5673 5670 5667 5664 5661 5659 5657 5655 5653 5652 5651 5650 5649 5648 5647 5647 5646 5645 5645 5644 5644 5644 5644 5645 5646 5648 5649 5649 5649 5650 5650
5713 5710 5706 5703 5698 5694 5690 5686 5682 5679 5676 5672 5669 5666 5663 5660 5657 5654 5652 5650 5648 5646 5645 5644 5643 5642 5641 5641 5640 5640 5639 5638 5638 5638 5639 5639 5640 5642 5643 5644 5644 5644 5645
5709 5706 5703 5700 5696 5692 5687 5683 5679 5676 5672 5669 5665 5662 5658 5655 5652 5650 5647 5645 5643 5641 5640 5638 5637 5636 5636 5635 5634 5634 5633 5633 5633 5633 5633 5634 5634 5636 5638 5639 5640 5640 5640
5705 5703 5700 5697 5693 5689 5685 5680 5676 5672 5668 5665 5661 5657 5654 5651 5648 5645 5642 5640 5638 5636 5635 5633 5632 5631 5630 5629 5628 5628 5627 5627 5627 5627 5628 5628 5629 5631 5633 5634 5635 5636 5636
5703 5700 5698 5695 5691 5686 5681 5677 5673 5669 5665 5661 5657 5654 5650 5646 5643 5640 5638 5635 5633 5632 5630 5629 5627 5626 5625 5624 5623 5622 5622 5621 5621 5622 5622 5622 5623 5625 5627 5629 5630 5631 5632
5703 5699 5696 5692 5688 5683 5679 5674 5670 5665 5661 5657 5653 5650 5646 5642 5639 5636 5633 5631 5629 5627 5625 5623 5622 5620 5619 5618 5617 5616 5616 5616 5616 5616 5616 5616 5617 5619 5621 5622 5624 5625 5627
5700 5698 5694 5689 5685 5680 5676 5671 5667 5662 5658 5653 5649 5646 5642 5638 5634 5632 5629 5627 5624 5622 5620 5618 5616 5615 5613 5612 5611 5611 5611 5610 5610 5610 5611 5611 5611 5612 5614 5616 5617 5619 5620
5698 5696 5692 5687 5683 5678 5673 5668 5663 5659 5655 5650 5646 5642 5639 5635 5631 5628 5625 5623 5620 5618 5616 5614 5612 5610 5608 5607 5606 5606 5606 5605 5605 5605 5605 5605 5604 5605 5606 5608 5610 5612 5614
5697 5694 5690 5685 5680 5675 5670 5665 5660 5656 5651 5647 5643 5639 5635 5632 5628 5625 5622 5619 5617 5614 5612 5609 5607 5605 5604 5602 5602 5601 5600 5600 5599 5599 5599 5599 5598 5599 5600 5601 5603 5604 5606
5695 5692 5688 5683 5678 5672 5667 5662 5657 5652 5648 5644 5640 5636 5632 5629 5625 5621 5618 5615 5613 5610 5607 5604 5602 5600 5598 5597 5597 5596 5595 5595 5594 5594 5593 5593 5593 5592 5592 5593 5594 5596 5597
5693 5690 5686 5681 5675 5669 5664 5658 5653 5649 5644 5640 5636 5632 5628 5625 5621 5617 5614 5611 5608 5605 5602 5599 5597 5595 5593 5592 5591 5590 5590 5589 5589 5588 5588 5587 5586 5586 5585 5585 5585 5586 5587
5691 5688 5682 5677 5672 5666 5660 5654 5649 5644 5639 5636 5632 5628 5624 5621 5617 5613 5609 5606 5603 5600 5597 5594 5592 5589 5587 5586 5585 5585 5584 5584 5584 5583 5582 5580 5579 5578 5577 5576 5576 5576 5576
5686 5683 5678 5673 5667 5661 5654 5648 5643 5637 5633 5630 5626 5623 5619 5616 5612 5608 5605 5601 5598 5594 5591 5588 5585 5583 5581 5579 5579 5579 5579 5579 5578 5576 5574 5573 5571 5570 5569 5568 5567 5566 5566
5679 5676 5672 5667 5661 5656 5649 5643 5637 5631 5627 5623 5620 5617 5613 5610 5606 5602 5599 5595 5592 5588 5585 5582 5579 5576 5573 5571 5570 5570 5571 5571 5570 5569 5567 5565 5563 5562 5560 5559 5558 5557 5556
5671 5669 5666 5661 5656 5651 5646 5640 5634 5628 5622 5618 5614 5610 5607 5604 5600 5596 5592 5589 5585 5581 5578 5574 5571 5567 5564 5562 5559 5558 5558 5559 5560 5561 5558 5556 5554 5552 5550 5549 5548 5547 5546
5663 5661 5659 5655 5650 5645 5640 5633 5626 5620 5615 5610 5606 5603 5599 5596 5593 5590 5585 5581 5577 5574 5569 5566 5563 5559 5555 5551 5548 5546 5544 5545 5546 5550 5549 5546 5543 5541 5540 5539 5537 5536 5536
5655 5653 5651 5647 5643 5639 5634 5629 5623 5616 5609 5604 5599 5595 5591 5588 5585 5582 5578 5573 5569 5565 5561 5557 5554 5550 5546 5541 5538 5535 5533 5531 5530 5535 5538 5537 5535 5532 5530 5529 5527 5526 5525
5647 5645 5643 5639 5635 5631 5627 5623 5617 5610 5603 5596 5592 5587 5583 5580 5577 5573 5569 5565 5561 5557 5552 5548 5544 5540 5536 5532 5528 5524 5521 5517 5515 5515 5522 5523 5523 5522 5520 5519 5518 5516 5515
5638 5636 5634 5631 5626 5623 5619 5615 5610 5603 5596 5589 5584 5579 5575 5571 5568 5564 5560 5556 5552 5548 5544 5539 5535 5531 5527 5523 5518 5514 5510 5507 5503 5500 5503 5507 5510 5513 5511 5509 5507 5506 5504